• en Belgique
  • Liste des pays
  • À 7 jours
  • Température de l'eau
  • Carte satellitaire
  • Carte météo
  • Widgets météo
  • user-avatar
    Se connecter

    Météo par heure à Ath

    Ce jour, 25 Novembre, Samedi

    Heure Température Précipitation Vent Pression Humidité
    00:00 +7°C° 0,2 mm 1 m/s 754 mmHg 89%
    01:00 +6°C° 0 mm 1 m/s 754 mmHg 89%
    02:00 +5°C° 0 mm 2 m/s 754 mmHg 89%
    03:00 +5°C° 0 mm 2 m/s 754 mmHg 88%
    04:00 +4°C° 0 mm 2 m/s 754 mmHg 88%
    05:00 +4°C° 0 mm 2 m/s 754 mmHg 88%
    06:00 +3°C° 0 mm 2 m/s 754 mmHg 88%
    07:00 +4°C° 0 mm 2 m/s 754 mmHg 86%
    08:00 +5°C° 0 mm 2 m/s 755 mmHg 83%
    09:00 +5°C° 0 mm 2 m/s 755 mmHg 81%
    10:00 +5°C° 0,1 mm 3 m/s 756 mmHg 77%
    11:00 +5°C° 0,1 mm 4 m/s 756 mmHg 72%
    12:00 +6°C° 0,1 mm 5 m/s 757 mmHg 68%
    13:00 +6°C° 0,2 mm 4 m/s 757 mmHg 69%
    14:00 +5°C° 0,2 mm 4 m/s 758 mmHg 71%
    15:00 +5°C° 0,2 mm 4 m/s 758 mmHg 72%
    16:00 +4°C° 0 mm 4 m/s 759 mmHg 74%
    17:00 +3°C° 0 mm 4 m/s 759 mmHg 76%
    18:00 +2°C° 0 mm 3 m/s 760 mmHg 78%
    19:00 +2°C° 0 mm 3 m/s 760 mmHg 79%
    20:00 +2°C° 0 mm 3 m/s 761 mmHg 80%
    21:00 +2°C° 0 mm 3 m/s 761 mmHg 81%
    22:00 +1°C° 0 mm 3 m/s 762 mmHg 82%
    23:00 +1°C° 0 mm 3 m/s 762 mmHg 83%

    Demain, 26 Novembre, Dimanche

    Heure Température Précipitation Vent Pression Humidité
    00:00 +1°C° 0 mm 3 m/s 762 mmHg 83%
    01:00 0°C° 0 mm 4 m/s 763 mmHg 83%
    02:00 0°C° 0 mm 4 m/s 763 mmHg 84%
    03:00 0°C° 0 mm 4 m/s 763 mmHg 84%
    04:00 0°C° 0 mm 4 m/s 763 mmHg 84%
    05:00 0°C° 0 mm 4 m/s 763 mmHg 84%
    06:00 0°C° 0 mm 4 m/s 763 mmHg 84%
    07:00 0°C° 0 mm 4 m/s 764 mmHg 82%
    08:00 +1°C° 0 mm 4 m/s 764 mmHg 81%
    09:00 +1°C° 0 mm 5 m/s 765 mmHg 79%
    10:00 +2°C° 0,1 mm 5 m/s 765 mmHg 75%
    11:00 +3°C° 0,1 mm 5 m/s 765 mmHg 72%
    12:00 +4°C° 0,1 mm 6 m/s 765 mmHg 68%
    13:00 +5°C° 0,1 mm 5 m/s 765 mmHg 70%
    14:00 +5°C° 0,1 mm 4 m/s 765 mmHg 72%
    15:00 +4°C° 0,1 mm 4 m/s 766 mmHg 74%
    16:00 +4°C° 0 mm 4 m/s 766 mmHg 77%
    17:00 +3°C° 0 mm 3 m/s 766 mmHg 80%
    18:00 +2°C° 0 mm 3 m/s 767 mmHg 83%
    19:00 +2°C° 0 mm 3 m/s 767 mmHg 83%
    20:00 +2°C° 0 mm 3 m/s 767 mmHg 84%
    21:00 +2°C° 0 mm 3 m/s 768 mmHg 84%
    22:00 +2°C° 0 mm 3 m/s 768 mmHg 84%
    23:00 +1°C° 0 mm 3 m/s 768 mmHg 84%

    Après-demain, 27 Novembre, Lundi

    Heure Température Précipitation Vent Pression Humidité
    00:00 0°C° 0 mm 4 m/s 768 mmHg 84%
    01:00 0°C° 0 mm 4 m/s 768 mmHg 84%
    02:00 0°C° 0 mm 4 m/s 767 mmHg 84%
    03:00 0°C° 0 mm 4 m/s 767 mmHg 84%
    04:00 0°C° 0 mm 4 m/s 767 mmHg 84%
    05:00 0°C° 0 mm 4 m/s 767 mmHg 84%
    06:00 0°C° 0 mm 4 m/s 767 mmHg 84%
    07:00 +1°C° 0 mm 4 m/s 766 mmHg 83%
    08:00 +1°C° 0 mm 5 m/s 766 mmHg 82%
    09:00 +2°C° 0 mm 5 m/s 766 mmHg 81%
    10:00 +3°C° 0 mm 6 m/s 766 mmHg 79%
    11:00 +5°C° 0 mm 7 m/s 765 mmHg 76%
    12:00 +6°C° 0 mm 7 m/s 764 mmHg 74%
    13:00 +6°C° 0,1 mm 7 m/s 764 mmHg 76%
    14:00 +6°C° 0,1 mm 7 m/s 763 mmHg 77%
    15:00 +5°C° 0,1 mm 8 m/s 762 mmHg 79%
    16:00 +5°C° 0,9 mm 8 m/s 762 mmHg 81%
    17:00 +5°C° 0,9 mm 8 m/s 761 mmHg 83%
    18:00 +5°C° 0,9 mm 8 m/s 761 mmHg 86%
    19:00 +5°C° 1,1 mm 8 m/s 760 mmHg 86%
    20:00 +5°C° 1,1 mm 8 m/s 760 mmHg 87%
    21:00 +5°C° 1,1 mm 8 m/s 759 mmHg 88%
    22:00 +5°C° 1,3 mm 7 m/s 758 mmHg 88%
    23:00 +5°C° 1,3 mm 7 m/s 758 mmHg 89%

    28 Novembre, Mardi

    Heure Température Précipitation Vent Pression Humidité
    00:00 +5°C° 1,3 mm 7 m/s 757 mmHg 89%
    01:00 +4°C° 1 mm 7 m/s 756 mmHg 89%
    02:00 +4°C° 1 mm 7 m/s 755 mmHg 89%
    03:00 +4°C° 1 mm 7 m/s 754 mmHg 89%
    04:00 +4°C° 0,9 mm 7 m/s 754 mmHg 89%
    05:00 +4°C° 0,9 mm 7 m/s 753 mmHg 89%
    06:00 +4°C° 0,9 mm 7 m/s 752 mmHg 89%
    07:00 +4°C° 0,8 mm 7 m/s 751 mmHg 89%
    08:00 +4°C° 0,8 mm 7 m/s 750 mmHg 88%
    09:00 +4°C° 0,8 mm 7 m/s 749 mmHg 88%
    10:00 +4°C° 0,9 mm 7 m/s 749 mmHg 88%
    11:00 +4°C° 0,9 mm 7 m/s 748 mmHg 88%
    12:00 +5°C° 0,9 mm 7 m/s 747 mmHg 87%
    13:00 +5°C° 0,8 mm 7 m/s 746 mmHg 88%
    14:00 +5°C° 0,8 mm 6 m/s 746 mmHg 88%
    15:00 +6°C° 0,8 mm 5 m/s 745 mmHg 89%
    16:00 +6°C° 0,9 mm 5 m/s 745 mmHg 87%
    17:00 +5°C° 0,9 mm 5 m/s 746 mmHg 84%
    18:00 +5°C° 0,9 mm 5 m/s 746 mmHg 82%
    19:00 +3°C° 0 mm 5 m/s 746 mmHg 83%
    20:00 +4°C° 0 mm 4 m/s 746 mmHg 83%
    21:00 +3°C° 0 mm 4 m/s 746 mmHg 84%
    22:00 +3°C° 0 mm 4 m/s 746 mmHg 84%
    23:00 +1°C° 0 mm 4 m/s 746 mmHg 85%

    29 Novembre, Mercredi

    Heure Température Précipitation Vent Pression Humidité
    00:00 +1°C° 0 mm 4 m/s 746 mmHg 85%
    01:00 +1°C° 0 mm 4 m/s 746 mmHg 86%
    02:00 +1°C° 0 mm 4 m/s 746 mmHg 87%
    03:00 +1°C° 0 mm 4 m/s 746 mmHg 88%
    04:00 +1°C° 0 mm 4 m/s 746 mmHg 89%
    05:00 +2°C° 0 mm 3 m/s 746 mmHg 90%
    06:00 +1°C° 0 mm 3 m/s 746 mmHg 91%
    07:00 +2°C° 0 mm 3 m/s 746 mmHg 90%
    08:00 +2°C° 0 mm 3 m/s 747 mmHg 89%
    09:00 +2°C° 0 mm 3 m/s 747 mmHg 88%
    10:00 +4°C° 0 mm 2 m/s 748 mmHg 85%
    11:00 +5°C° 0 mm 2 m/s 748 mmHg 82%
    12:00 +6°C° 0 mm 1 m/s 748 mmHg 80%
    13:00 +6°C° 0 mm 1 m/s 749 mmHg 81%
    14:00 +6°C° 0 mm 1 m/s 749 mmHg 81%
    15:00 +6°C° 0 mm 1 m/s 750 mmHg 82%
    16:00 +6°C° 0,1 mm 1 m/s 750 mmHg 84%
    17:00 +6°C° 0,1 mm 1 m/s 751 mmHg 85%
    18:00 +5°C° 0,1 mm 1 m/s 751 mmHg 87%
    19:00 +4°C° 0 mm 2 m/s 752 mmHg 88%
    20:00 +4°C° 0 mm 2 m/s 752 mmHg 89%
    21:00 +4°C° 0 mm 2 m/s 753 mmHg 90%
    22:00 +3°C° 0 mm 2 m/s 753 mmHg 90%
    23:00 +3°C° 0 mm 2 m/s 753 mmHg 90%

    30 Novembre, Jeudi

    Heure Température Précipitation Vent Pression Humidité
    00:00 +3°C° 0 mm 2 m/s 754 mmHg 90%
    01:00 +3°C° 0 mm 2 m/s 754 mmHg 89%
    02:00 +3°C° 0 mm 2 m/s 754 mmHg 89%
    03:00 +3°C° 0 mm 2 m/s 754 mmHg 88%
    04:00 +3°C° 0 mm 2 m/s 754 mmHg 88%
    05:00 +2°C° 0 mm 3 m/s 755 mmHg 87%
    06:00 +2°C° 0 mm 3 m/s 755 mmHg 86%
    07:00 +2°C° 0,2 mm 3 m/s 755 mmHg 84%
    08:00 +3°C° 0,2 mm 3 m/s 756 mmHg 83%
    09:00 +4°C° 0,2 mm 4 m/s 756 mmHg 81%
    10:00 +3°C° 0,3 mm 5 m/s 756 mmHg 78%
    11:00 +4°C° 0,3 mm 6 m/s 756 mmHg 74%
    12:00 +4°C° 0,3 mm 6 m/s 756 mmHg 71%
    13:00 +4°C° 0,3 mm 6 m/s 756 mmHg 72%
    14:00 +3°C° 0,3 mm 6 m/s 756 mmHg 73%
    15:00 +3°C° 0,3 mm 6 m/s 756 mmHg 74%
    16:00 +2°C° 0,1 mm 6 m/s 756 mmHg 75%
    17:00 +1°C° 0,1 mm 6 m/s 756 mmHg 77%
    18:00 +1°C° 0,1 mm 5 m/s 756 mmHg 79%
    19:00 +1°C° 0 mm 6 m/s 755 mmHg 79%
    20:00 +1°C° 0 mm 6 m/s 755 mmHg 79%
    21:00 +1°C° 0 mm 6 m/s 754 mmHg 79%
    22:00 0°C° 0,7 mm 7 m/s 754 mmHg 80%
    23:00 +2°C° 0,7 mm 7 m/s 753 mmHg 81%
    Voir plus